Hourly Data Report for April 24, 2012

MIRAMICHI RCS
NEW BRUNSWICK

47°00'34.000" N
65°27'54.000" W
33.00 m
8100989
71744
ACQ

Download Data

Hourly Data (April 2012)
Hourly Data Report for April 24, 2012
TIME
LST
Temp Definition
°C
Dew Point Definition
°C
Rel Hum Definition
%
Precip. Amount Definition
mm

Wind Dir Definition
10's deg

Wind Spd Definition
km/h
Visibility Definition
km
Stn Press Definition
kPa
Hmdx Definition


Wind Chill Definition


Weather Definition


00:00 15.8 14.3 91   15 24   99.99     LegendNANA
01:00 16.0 14.4 90   15 24   99.96     LegendNANA
02:00 15.8 14.2 90   15 20   99.93     LegendNANA
03:00 15.9 14.3 90   15 24   99.89     LegendNANA
04:00 15.9 14.4 91   14 22   99.87     LegendNANA
05:00 15.9 14.3 90   15 26   99.82     LegendNANA
06:00 15.8 14.3 91   15 24   99.80     LegendNANA
07:00 16.0 14.7 92   14 24   99.78     LegendNANA
08:00 16.2 14.8 91   15 26   99.75     LegendNANA
09:00 16.6 14.9 90   14 28   99.74     LegendNANA
10:00 16.5 15.1 91   14 24   99.72     LegendNANA
11:00 16.6 15.3 92   15 24   99.76     LegendNANA
12:00 15.3 14.1 93   22 19   99.72     LegendNANA
13:00 15.9 14.1 89   19 22   99.78     LegendNANA
14:00 16.0 13.3 84   18 17   99.79     LegendNANA
15:00 17.5 11.9 70   20 20   99.76     LegendNANA
16:00 17.5 12.2 71   18 19   99.83     LegendNANA
17:00 17.9 10.0 60   19 22   99.88     LegendNANA
18:00 17.3 9.6 61   18 20   99.96     LegendNANA
19:00 15.3 8.3 63   21 15   100.07     LegendNANA
20:00 12.9 8.2 73   20 9   100.22     LegendNANA
21:00 12.4 7.8 73   19 17   100.31     LegendNANA
22:00 10.4 7.1 80   21 11   100.37     LegendNANA
23:00 9.2 4.0 70   20 19   100.42     LegendNANA

Notes on Data Quality.

Legend

  • E = Estimated
  • M = Missing
  • NA = Not Available*
  • [empty] = Indicates an unobserved value
Date modified: